COSMOS 2569 (703K)

Last updated on Sat Nov 15 2025 00:02:36 GMT+0000 (Coordinated Universal Time)

1 57517U 23114A 25318.33373280 -.00000006 00000+0 00000+0 0 9999 2 57517 65.1795 79.8731 0009449 287.4736 72.4120 2.13103891 17684
UTC large
Height (km)
Speed (km/s)
/
Latitude / Longitude
Inclination (degrees)
Orbital Period (minutes)
Azimuth
Elevation
Range (km)
Doppler Factor

Next 0 passes for location: London (51.5072 / 0.1276)

Sorry there are no passes over London.